• MPC Preparation (Info)

  • MPEC 2023-F235 : 2023 FT11

    The following Minor Planet Electronic Circular may be linked-to from your own Web pages, but must not otherwise be redistributed electronically.

    A form allowing access to any MPEC is at the bottom of this page.


    Read MPEC 2023-F234 Read MPEC 2023-F236


    M.P.E.C. 2023-F235                               Issued 2023 March 30, 08:07 UT
    
         The Minor Planet Electronic Circulars contain information on unusual
             minor planets, routine data on comets and natural satellites,
             and occasional editorial announcements.  They are published
        on behalf of Division F of the International Astronomical Union by the
              Minor Planet Center, Smithsonian Astrophysical Observatory,
                              Cambridge, MA 02138, U.S.A.
    			  
                 Prepared using the Tamkin Foundation Computer Network
    
                                  MPC@CFA.HARVARD.EDU
                URL https://www.minorplanetcenter.net/    ISSN 1523-6714
    
                                    2023 FT11                                
    
    
    Observations:
         K23F11T*1C2023 03 28.41667316 00 52.816+10 32 25.19         20.49GVEF235G96
         K23F11T 1C2023 03 28.42184316 00 50.627+10 31 26.36         20.95GVEF235G96
         K23F11T 1C2023 03 28.42702216 00 48.470+10 30 28.22         20.47GVEF235G96
         K23F11T 1C2023 03 28.43220216 00 46.328+10 29 28.61               VEF235G96
         K23F11T KC2023 03 28.49751016 00 18.990+10 17 05.70         20.46GVEF235I52
         K23F11T KC2023 03 28.49987916 00 17.980+10 16 38.80         20.85GVEF235I52
         K23F11T KC2023 03 28.50224316 00 17.000+10 16 12.00         20.75GVEF235I52
         K23F11T KC2023 03 28.50460916 00 16.010+10 15 44.90         20.62GVEF235I52
         K23F11T KC2023 03 29.33695715 55 11.111+07 40 46.81         20.84GVEF235I52
         K23F11T KC2023 03 29.33819815 55 10.607+07 40 32.23         20.80GVEF235I52
         K23F11T KC2023 03 29.33944015 55 10.110+07 40 18.48         21.07GVEF235I52
         K23F11T KC2023 03 29.34068115 55 09.613+07 40 06.20         21.05GVEF235I52
         K23F11T |C2023 03 30.27495 15 49 34.21 +04 54 51.2          20.7 GVEF235807
         K23F11T |C2023 03 30.27910 15 49 32.63 +04 54 07.9          20.9 GVEF235807
         K23F11T KC2023 03 30.28123915 49 32.92 +04 51 51.2          20.9 VuEF235H21
         K23F11T |C2023 03 30.28324 15 49 31.03 +04 53 24.7          21.0 GVEF235807
         K23F11T KC2023 03 30.28403715 49 31.87 +04 51 22.7          20.8 VuEF235H21
         K23F11T KC2023 03 30.28683415 49 30.82 +04 50 53.3          20.7 VuEF235H21
    
    Observer details:
    807 Cerro Tololo Observatory, La Serena.  Observers T. Linder, R. Holmes, L.
        Horn.  1.00-m f/10.0 astrograph + CCD.
    G96 Mt. Lemmon Survey.  Observer G. J. Leonard.  Measurers E. J. Christensen,
        D. Fay, J. B. Fazekas, D. C. Fuls, A. R. Gibbs, A. D. Grauer, H. Groeller,
        J. K. Hogan, R. A. Kowalski, S. M. Larson, G. J. Leonard, D. Rankin, R. L.
        Seaman, A. Serrano, F. C. Shelly, K. W. Wierzchos.  1.5-m reflector + 10K
        CCD.
    H21 Astronomical Research Observatory, Westfield.  Observer R. Holmes.
        Measurers T. Linder, R. Holmes, L. Horn.  0.76-m f/3.0 astrograph + CCD.
    I52 Steward Observatory, Mt. Lemmon Station.  Observer J. B. Fazekas.
        Measurers E. J. Christensen, D. Fay, J. B. Fazekas, D. C. Fuls, A. R.
        Gibbs, A. D. Grauer, H. Groeller, J. K. Hogan, R. A. Kowalski, S. M.
        Larson, G. J. Leonard, D. Rankin, R. L. Seaman, A. Serrano, F. C. Shelly,
        K. W. Wierzchos.  1.0-m prime focus + CCD.
    
    Orbital elements:
    2023 FT11                                                Earth MOID = 0.0639 AU
    Epoch 2023 Feb. 25.0 TT = JDT 2460000.5                 Veres                   
    M   1.25157              (2000.0)            P               Q                  
    n   0.37374757     Peri.  125.55231     -0.84157842     -0.53528600             
    a   1.9087562      Node    22.35680     +0.41343097     -0.72441529             
    e   0.4974609      Incl.   10.94385     +0.34759258     -0.43438622             
    P   2.64           H   24.40          G   0.15           U   8                  
    Residuals in seconds of arc
    230328 G96  0.2-  0.6-    230328 I52  0.0   0.2+    230330 807  0.0   0.1-
    230328 G96  0.6-  0.6-    230328 I52  0.0   0.0     230330 807  0.1+  0.0
    230328 G96  0.4-  0.2+    230329 I52  0.3+  0.6+    230330 H21  0.1-  0.5-
    230328 G96  0.0   0.5-    230329 I52  0.0   0.4-    230330 807  0.0   0.1+
    230328 I52  0.2+  0.0     230329 I52  0.1-  0.6-    230330 H21  0.1-  0.3+
    230328 I52  0.1-  0.1+    230329 I52  0.2-  0.6+    230330 H21  0.1-  0.1+
    
    Ephemeris:
    2023 FT11                a,e,i = 1.91, 0.50, 11                  q = 0.9592
    Date    TT    R. A. (2000) Decl.     Delta      r    Elong.  Phase     V
    2023 02 28    21 42 53.9 +65 32 39   0.1424  0.9624    74.6    97.2    23.6
    ...
    2023 03 15    18 05 43.5 +52 20 13   0.09054 0.9946    87.6    87.2    22.2
    ...
    2023 03 23    16 40 41.1 +28 49 18   0.07972 1.0243   108.3    67.4    21.3
    ...
    2023 03 29    15 57 11.7 +08 43 43   0.08563 1.0515   126.6    49.6    21.0
    2023 03 30    15 51 09.0 +05 42 24   0.08779 1.0564   129.4    46.9    21.0
    2023 03 31    15 45 23.3 +02 49 53   0.09025 1.0614   132.1    44.3    21.0
    ...
    2023 04 06    15 15 45.1 -11 06 49   0.1103  1.0931   145.5    31.2    21.1
    ...
    2023 04 14    14 46 00.8 -22 13 24   0.1472  1.1396   156.9    20.2    21.5
    ...
    2023 04 29    14 10 53.2 -30 37 54   0.2377  1.2364   163.3    13.5    22.5
    
    M. P. C. Staff               (C) Copyright 2023 MPC           M.P.E.C. 2023-F235
    


    Read MPEC 2023-F234 Read MPEC 2023-F236


    MPEC number:

    Enter an MPEC number in one of the following forms:

    • 1997-B01 (the full form)
    • J97B01 (the packed version of the full form)
    • B01 (the abbreviated form)